If you wish to contribute or participate in the discussions about articles you are invited to join SKYbrary as a registered user

 Actions

Hermes Quijada International Airport

From SKYbrary Wiki

SAWE
Airport
ICAO: SAWE – IATA: RGA
Summary
Name Hermes Quijada International Airport
Region South America and Caribbean
Territory Argentina AR.gif
Location Rio Grande, Tierra del Fuego
Serving Rio Grande
Elevation 19.812 m
65 ft
65 ft19.812 m
Type medium airport
Coordinates 53° 46' 39.60" S, 67° 44' 57.80" W
Runways
Designator Length Width Surface ROPS
7/25 2000 m6,561.68 ft
40 m131.234 ft
ASP yes/yes


METAR
Observation SAWE 211900Z 27020KT CAVOK 23/10 Q1017
Station Rio Grande B. A.
Date/Time 21 February 2020 19:00:00
Wind direction 270°
Wind speed 20 kts
Lowest cloud amount clouds and visibility OK
Temperature 23°C
Dew point 10°C
Humidity 43%
QNH 1017 hPa
Weather condition n/a

Airport 2km 1.08 nm
2,000 m
6,561.68 ft
northwest of Rio Grande, Tierra del Fuego, Argentina.

Climatology

Cool oceanic climate (Köppen climate classification Cfc).

Maps

Terrain

Loading map...

Airport Layout

Loading map...


Accidents & Serious Incidents at or in vicinity of SAWE

None on SKYbrary